GW2540 Weather Reports


time (UTC)temp
C
wind
direction
speed
KPH
gust
KPH
rain 1hr
cm
rain 24hr
cm
rain mn
cm
humidity
%
barometer
mb
20260502160214 13 270 1.6 1.6 0.00 0.00 0.00 62 1012.9
20260502152132 14 270 1.6 3.2 0.00 0.00 0.00 60 1013.3
20260502151630 14 180 0.0 1.6 0.00 0.00 0.00 60 1013.3
20260502151127 14 180 1.6 1.6 0.00 0.00 0.00 60 1013.3
20260502150624 14 180 0.0 1.6 0.00 0.00 0.00 59 1013.3
20260502150120 14 270 3.2 3.2 0.00 0.00 0.00 60 1013.3
20260502130509 16 180 0.0 0.0 0.00 0.00 0.00 55 1012.9
20260502123452 17 315 3.2 3.2 0.00 0.00 0.00 52 1012.6
20260502122949 17 315 3.2 4.8 0.00 0.00 0.00 50 1012.6
20260502122445 17 315 1.6 3.2 0.00 0.00 0.00 50 1012.6
20260502121943 17 270 1.6 3.2 0.00 0.00 0.00 50 1012.6
20260502121440 17 270 1.6 3.2 0.00 0.00 0.00 49 1012.6
20260502120938 17 270 1.6 3.2 0.00 0.00 0.00 49 1012.6
20260502120434 17 270 1.6 1.6 0.00 0.00 0.00 49 1012.2
20260502115931 17 180 1.6 1.6 0.00 0.00 0.00 48 1011.9
20260502115428 18 270 0.0 0.0 0.00 0.00 0.00 48 1012.2
20260502114924 18 270 0.0 0.0 0.00 0.00 0.00 48 1011.9
20260502114421 18 270 1.6 1.6 0.00 0.00 0.00 47 1011.9
20260502113918 18 0 0.0 0.0 0.00 0.00 0.00 47 1011.9
20260502113416 18 270 0.0 0.0 0.00 0.00 0.00 47 1011.9
20260502112914 18 270 1.6 3.2 0.00 0.00 0.00 47 1011.6
20260502112411 18 270 1.6 3.2 0.00 0.00 0.00 47 1011.6
20260502111909 19 225 1.6 3.2 0.00 0.00 0.00 46 1011.6
20260502111406 19 270 4.8 4.8 0.00 0.00 0.00 46 1011.6
20260502110903 19 270 4.8 4.8 0.00 0.00 0.00 45 1011.6
20260502110401 19 270 3.2 3.2 0.00 0.00 0.00 44 1011.6
20260502105858 20 270 0.0 0.0 0.00 0.00 0.00 44 1011.2
20260502105355 20 180 3.2 4.8 0.00 0.00 0.00 43 1011.2
20260502104853 20 270 4.8 8.0 0.00 0.00 0.00 42 1011.2
20260502104350 20 270 8.0 11.3 0.00 0.00 0.00 40 1010.9
20260502103847 20 270 4.8 6.4 0.00 0.00 0.00 38 1011.2
20260502103345 20 270 3.2 4.8 0.00 0.00 0.00 36 1010.4
20260502102841 20 180 3.2 4.8 0.00 0.00 0.00 34 1010.9
20260502102338 20 180 1.6 3.2 0.00 0.00 0.00 34 1010.9
20260502101836 21 180 1.6 3.2 0.00 0.00 0.00 33 1010.4
20260502101334 21 180 3.2 3.2 0.00 0.00 0.00 30 1010.4
20260502100832 21 180 3.2 3.2 0.00 0.00 0.00 28 1010.4
20260502100331 21 270 1.6 3.2 0.00 0.00 0.00 28 1010.4
20260502091304 23 0 1.6 1.6 0.00 0.00 0.00 21 1009.8
20260502090802 23 45 4.8 6.4 0.00 0.00 0.00 20 1009.8
20260502090258 23 0 3.2 3.2 0.00 0.00 0.00 21 1009.8
20260502071159 25 90 1.6 3.2 0.00 0.00 0.00 21 1008.4
20260502070657 25 45 11.3 12.9 0.00 0.00 0.00 22 1008.1
20260502070154 25 45 6.4 8.0 0.00 0.00 0.00 23 1008.1
20260502065653 25 90 6.4 8.0 0.00 0.00 0.00 25 1008.1
20260502065150 25 45 3.2 4.8 0.00 0.00 0.00 26 1008.1
20260502064649 25 180 1.6 3.2 0.00 0.00 0.00 26 1008.1
20260502064145 25 225 4.8 4.8 0.00 0.00 0.00 25 1007.7
20260502063643 25 0 4.8 8.0 0.00 0.00 0.00 25 1007.7
20260502063141 25 180 1.6 3.2 0.00 0.00 0.00 24 1007.7
20260502062637 25 90 4.8 8.0 0.00 0.00 0.00 22 1007.4
20260502062135 25 45 8.0 11.3 0.00 0.00 0.00 17 1007.4
20260502061633 25 0 9.7 11.3 0.00 0.00 0.00 18 1007.4
20260502061131 26 45 6.4 8.0 0.00 0.00 0.00 16 1007.4
20260502060631 26 45 6.4 9.7 0.00 0.00 0.00 16 1007.1
20260502060127 26 90 3.2 3.2 0.00 0.00 0.00 16 1007.1
20260502055625 26 45 3.2 3.2 0.00 0.00 0.00 16 1007.1
20260502055123 26 45 14.5 16.1 0.00 0.00 0.00 16 1007.1
20260502054622 26 0 14.5 16.1 0.00 0.00 0.00 16 1007.1
20260502054119 26 0 11.3 14.5 0.00 0.00 0.00 16 1007.1
20260502053616 26 45 17.7 24.1 0.00 0.00 0.00 16 1007.1
20260502053113 26 45 14.5 16.1 0.00 0.00 0.00 16 1007.1
20260502052612 26 0 11.3 20.9 0.00 0.00 0.00 16 1006.7
20260502052110 26 45 11.3 12.9 0.00 0.00 0.00 18 1006.7
20260502051607 26 135 6.4 6.4 0.00 0.00 0.00 11 1006.7
20260502051105 26 45 8.0 11.3 0.00 0.00 0.00 11 1006.7
20260502050601 26 90 11.3 14.5 0.00 0.00 0.00 11 1006.7
20260502050058 26 45 8.0 11.3 0.00 0.00 0.00 11 1006.7
20260502045554 26 0 4.8 8.0 0.00 0.00 0.00 11 1006.7
20260502045052 27 0 8.0 11.3 0.00 0.00 0.00 12 1006.4
20260502044548 27 45 11.3 16.1 0.00 0.00 0.00 12 1006.4
20260502044045 28 0 8.0 12.9 0.00 0.00 0.00 12 1006.4
20260502043542 28 270 6.4 9.7 0.00 0.00 0.00 12 1006.0
20260502043038 28 0 17.7 25.7 0.00 0.00 0.00 12 1005.7
20260502042533 28 270 11.3 16.1 0.00 0.00 0.00 12 1006.0
20260502042031 28 270 9.7 16.1 0.00 0.00 0.00 10 1005.4
20260502041529 28 180 12.9 17.7 0.00 0.00 0.00 10 1005.4
20260502041026 28 270 4.8 8.0 0.00 0.00 0.00 10 1005.7
20260502040522 27 270 4.8 12.9 0.00 0.00 0.00 10 1005.7
20260502040020 27 270 9.7 14.5 0.00 0.00 0.00 10 1005.7
20260502035515 27 270 12.9 22.5 0.00 0.00 0.00 15 1005.7
20260502035013 27 0 11.3 16.1 0.00 0.00 0.00 15 1005.7
20260502034511 27 315 11.3 16.1 0.00 0.00 0.00 15 1005.7
20260502034009 27 315 11.3 14.5 0.00 0.00 0.00 15 1005.7
20260502033507 27 270 17.7 24.1 0.00 0.00 0.00 16 1005.7
20260502033004 26 270 9.7 16.1 0.00 0.00 0.00 16 1005.7
20260502032459 26 270 37.0 40.2 0.00 0.00 0.00 18 1005.4
20260502031956 26 0 20.9 25.7 0.00 0.00 0.00 21 1005.0
20260502031455 26 270 14.5 20.9 0.00 0.00 0.00 21 1005.4
20260502030953 26 0 14.5 20.9 0.00 0.00 0.00 21 1005.4
20260502030451 26 270 19.3 25.7 0.00 0.00 0.00 21 1005.4
20260502025948 26 0 17.7 22.5 0.00 0.00 0.00 21 1005.7
20260502025445 26 0 11.3 16.1 0.00 0.00 0.00 22 1005.7
20260502024943 26 45 20.9 35.4 0.00 0.00 0.00 23 1005.4
20260502024441 26 0 20.9 38.6 0.00 0.00 0.00 24 1005.4
20260502023939 26 270 11.3 14.5 0.00 0.00 0.00 25 1005.4
20260502023436 26 270 22.5 30.6 0.00 0.00 0.00 26 1005.4
20260502022933 25 0 19.3 27.4 0.00 0.00 0.00 27 1005.7
20260502022430 25 270 14.5 24.1 0.00 0.00 0.00 28 1005.0
20260502021927 25 270 12.9 22.5 0.00 0.00 0.00 30 1005.0
20260502021424 25 0 11.3 16.1 0.00 0.00 0.00 31 1005.0
20260502020921 25 14.5 24.1 0.00 0.00 0.00 32 1005.4
20260502020419 25 0 17.7 20.9 0.00 0.00 0.00 33 1005.0
20260502015915 25 0 17.7 22.5 0.00 0.00 0.00 35 1005.0
20260502015413 24 225 8.0 11.3 0.00 0.00 0.00 37 1005.0
20260502014910 24 270 11.3 16.1 0.00 0.00 0.00 40 1005.0
20260502014407 23 270 9.7 11.3 0.00 0.00 0.00 41 1005.0
20260502013903 23 270 4.8 8.0 0.00 0.00 0.00 41 1004.7
20260502013358 23 45 8.0 11.3 0.00 0.00 0.00 42 1004.7
20260502012855 23 0 1.6 3.2 0.00 0.00 0.00 43 1005.0
20260502012353 23 90 3.2 3.2 0.00 0.00 0.00 44 1004.7
20260502011850 22 45 6.4 8.0 0.00 0.00 0.00 46 1004.7
20260502011346 22 135 4.8 4.8 0.00 0.00 0.00 47 1004.7
20260502010843 22 135 4.8 4.8 0.00 0.00 0.00 47 1004.7
20260502010340 22 90 4.8 4.8 0.00 0.00 0.00 48 1004.7
20260502005837 22 180 6.4 9.7 0.00 0.00 0.00 48 1004.4
20260502005335 21 0 6.4 8.0 0.00 0.00 0.00 49 1005.0
20260502004832 21 135 4.8 8.0 0.00 0.00 0.00 50 1004.7
20260502004328 21 90 8.0 8.0 0.00 0.00 0.00 51 1004.7
20260502003826 21 90 6.4 11.3 0.00 0.00 0.00 52 1004.7
20260502003323 21 180 8.0 12.9 0.00 0.00 0.00 52 1004.7
20260502002819 21 225 6.4 8.0 0.00 0.00 0.00 54 1004.7
20260502002316 20 180 1.6 3.2 0.00 0.00 0.00 54 1004.4
20260502001813 20 180 4.8 6.4 0.00 0.00 0.00 54 1004.7
20260502001311 20 45 4.8 6.4 0.00 0.00 0.00 54 1004.4
20260502000808 20 90 6.4 9.7 0.00 0.00 0.00 54 1004.4
20260502000307 20 90 4.8 4.8 0.00 0.00 0.00 54 1004.4
20260501235802 20 180 8.0 11.3 0.00 0.00 0.00 54 1004.4
20260501235258 20 180 11.3 11.3 0.00 0.00 0.00 54 1004.4
20260501234753 20 135 6.4 8.0 0.00 0.00 0.00 54 1004.4
20260501234251 19 180 12.9 14.5 0.00 0.00 0.00 54 1004.7
20260501233749 19 180 4.8 6.4 0.00 0.00 0.00 54 1004.4
20260501233246 19 180 8.0 11.3 0.00 0.00 0.00 54 1004.4
20260501232742 19 180 4.8 8.0 0.00 0.00 0.00 54 1004.0
20260501232239 19 180 8.0 9.7 0.00 0.00 0.00 54 1004.4
20260501231737 19 225 8.0 11.3 0.00 0.00 0.00 54 1004.0
20260501231235 20 180 17.7 22.5 0.00 0.00 0.00 54 1004.0
20260501230733 20 270 9.7 11.3 0.00 0.00 0.00 54 1003.7
20260501230231 20 180 12.9 16.1 0.00 0.00 0.00 55 1003.7
20260501225723 21 45 1.6 3.2 0.00 0.00 0.00 54 1003.7
20260501225220 21 135 9.7 12.9 0.00 0.00 0.00 55 1003.7
20260501224716 21 180 9.7 12.9 0.00 0.00 0.00 56 1003.3
20260501224214 21 180 8.0 9.7 0.00 0.00 0.00 58 1003.3
20260501223709 21 180 12.9 14.5 0.00 0.00 0.00 60 1003.3
20260501223206 21 90 6.4 8.0 0.00 0.00 0.00 64 1003.3
20260501222702 20 135 4.8 8.0 0.00 0.00 0.00 66 1003.3
20260501222200 19 180 4.8 8.0 0.00 0.00 0.00 68 1002.6
20260501221656 18 180 8.0 9.7 0.00 0.00 0.00 70 1002.9
20260501221153 17 180 1.6 3.2 0.00 0.00 0.00 71 1002.9
20260501220651 17 180 8.0 11.3 0.00 0.00 0.00 72 1002.6
20260501220148 16 180 4.8 6.4 0.00 0.00 0.00 74 1002.9
20260501215645 15 180 6.4 9.7 0.00 0.00 0.00 75 1002.6
20260501215140 14 180 1.6 3.2 0.00 0.00 0.00 76 1002.6
20260501214635 14 180 6.4 8.0 0.00 0.00 0.00 76 1002.6
20260501214131 13 180 6.4 8.0 0.00 0.00 0.00 76 1002.2
20260501213628 13 180 6.4 8.0 0.00 0.00 0.00 77 1001.9
20260501213124 13 180 4.8 6.4 0.00 0.00 0.00 77 1001.9
20260501212621 13 180 8.0 11.3 0.00 0.00 0.00 77 1001.9
20260501212117 13 180 6.4 8.0 0.00 0.00 0.00 78 1001.9
20260501211614 13 180 3.2 4.8 0.00 0.00 0.00 79 1001.5
20260501211112 12 270 3.2 4.8 0.00 0.00 0.00 80 1001.5
20260501210609 12 180 4.8 6.4 0.00 0.00 0.00 81 1001.5
20260501210105 12 180 8.0 9.7 0.00 0.00 0.00 81 1001.2
20260501205601 12 180 8.0 9.7 0.00 0.00 0.00 82 1001.2
20260501205059 12 180 6.4 8.0 0.00 0.00 0.00 83 1000.9
20260501204555 11 180 8.0 11.3 0.00 0.00 0.00 84 1001.5
20260501204051 11 180 4.8 4.8 0.00 0.00 0.00 85 1000.9
20260501203548 11 135 1.6 3.2 0.00 0.00 0.00 86 1000.9
20260501203046 11 0 0.0 1.6 0.00 0.00 0.00 86 1000.5
20260501202543 11 180 4.8 4.8 0.00 0.00 0.00 88 1000.2
20260501202039 10 180 8.0 9.7 0.00 0.00 0.00 89 1000.2
20260501201536 10 180 6.4 8.0 0.00 0.00 0.00 89 1000.2
20260501201033 10 180 8.0 8.0 0.00 0.00 0.00 90 1000.2
20260501200530 10 180 6.4 8.0 0.00 0.00 0.00 90 999.8
20260501200027 10 270 6.4 8.0 0.00 0.00 0.00 90 1000.2
20260501195525 9 180 4.8 6.4 0.00 0.00 0.00 91 999.8
20260501195020 9 225 6.4 6.4 0.00 0.00 0.00 91 999.8
20260501194516 9 270 1.6 3.2 0.00 0.00 0.00 91 999.5
20260501194012 9 270 4.8 6.4 0.00 0.00 0.00 91 999.2
20260501193510 9 45 4.8 6.4 0.00 0.00 0.00 91 999.2
20260501193008 9 90 0.0 1.6 0.00 0.00 0.00 91 999.2
20260501192504 9 270 1.6 3.2 0.00 0.00 0.00 91 999.5
20260501192002 9 270 1.6 3.2 0.00 0.00 0.00 91 999.5
20260501191459 9 225 3.2 3.2 0.00 0.00 0.00 91 999.5
20260501190956 9 270 4.8 4.8 0.00 0.00 0.00 91 999.2
20260501190451 9 270 3.2 3.2 0.00 0.00 0.00 91 999.2
20260501185947 9 90 4.8 4.8 0.00 0.00 0.00 91 998.8
20260501185443 9 270 4.8 6.4 0.00 0.00 0.00 91 998.8
20260501184939 9 270 0.0 1.6 0.00 0.00 0.00 91 998.5
20260501184436 9 90 0.0 0.0 0.00 0.00 0.00 91 998.2
20260501183931 9 90 0.0 0.0 0.00 0.00 0.00 91 998.2
20260501183428 9 270 0.0 1.6 0.00 0.00 0.00 91 998.2
20260501182924 9 180 0.0 1.6 0.00 0.00 0.00 91 997.8
20260501182421 9 270 8.0 8.0 0.00 0.00 0.00 90 997.8
20260501181918 9 45 3.2 3.2 0.00 0.00 0.00 90 997.5
20260501181415 9 0 1.6 3.2 0.00 0.00 0.00 90 997.5
20260501180912 9 270 3.2 4.8 0.00 0.00 0.00 90 997.1
20260501180409 10 180 1.6 3.2 0.00 0.00 0.00 90 996.8
20260501175906 10 270 3.2 3.2 0.00 0.00 0.00 90 996.8
20260501175403 10 0 3.2 3.2 0.00 0.00 0.00 90 996.5
20260501174859 10 0 1.6 3.2 0.00 0.00 0.00 90 996.5
20260501174357 10 0 0.0 1.6 0.00 0.00 0.00 90 996.5
20260501173854 10 180 0.0 1.6 0.00 0.00 0.00 90 996.5
20260501173352 10 180 3.2 3.2 0.00 0.00 0.00 89 996.5
20260501172847 10 270 1.6 3.2 0.00 0.00 0.00 89 996.5
20260501172342 10 0 3.2 3.2 0.00 0.00 0.00 89 996.5
20260501171838 10 270 0.0 1.6 0.00 0.00 0.00 89 996.5
20260501171335 10 0 1.6 3.2 0.00 0.00 0.00 89 996.1
20260501170832 10 270 1.6 3.2 0.00 0.00 0.00 88 996.1
20260501170329 10 225 4.8 4.8 0.00 0.00 0.00 88 996.1
20260501165826 10 225 4.8 4.8 0.00 0.00 0.00 87 995.8
20260501165324 10 270 4.8 8.0 0.00 0.00 0.00 87 996.1
20260501164822 10 225 4.8 4.8 0.00 0.00 0.00 87 995.3
20260501164320 10 270 0.0 0.0 0.00 0.00 0.00 87 995.8
20260501163815 11 180 1.6 3.2 0.00 0.00 0.00 87 995.8
20260501163312 11 90 0.0 1.6 0.00 0.00 0.00 87 995.8
20260501162809 11 180 0.0 1.6 0.00 0.00 0.00 86 995.8
20260501162306 11 180 1.6 3.2 0.00 0.00 0.00 86 995.8
20260501161803 11 270 1.6 3.2 0.00 0.00 0.00 86 996.1
20260501161259 11 270 0.0 0.0 0.00 0.00 0.00 86 995.8
20260501160755 11 270 3.2 3.2 0.00 0.00 0.00 86 995.8